sat.trackr.live / text

‹ back to catalog

STARLINK-5313

NORAD 55313 · 2023-010AW

PAYLOAD ACTIVE UNKNOWN

§ Identity

Operator
Country
US
Launch date
2023-01-19
Launch site
AFWTR
Launch vehicle
Mass (kg)
RCS (m²)

Purposes: comms

External: N2YO · Heavens-Above · Gunter

§ Orbital elements

Epoch: 2026-05-25T03:28:05.270016Z

Period
96.11 min
Inclination
69.9987°
Eccentricity
0.0003689
Mean motion
14.98330237 rev/d
Perigee alt
569.5 km
Apogee alt
574.6 km
Semi-major
6,950.2 km
B*
3.7610e-5
RAAN
171.7182°
Arg perigee
267.0870°
Mean anomaly
92.9867°
Rev number
18,609

§ Raw data

STARLINK-53131 55313U 23010AW  26145.14450544  .00000356  00000+0  37610-4 0  99922 55313  69.9987 171.7182 0003689 267.0870  92.9867 14.98330237186095

JSON: /api/v1/satellites/55313 · /tle

For live sub-satellite position, see the globe view (requires WebGL).

§ Visibility from observer

Set your observer location to see the next 7 days of passes ≥ 10°. The values pass through the URL so the page stays shareable.

No JS? Fill the form by hand. The geolocation button needs JavaScript.